Location: ??
(35.5672°N, 139.6509°E)
Time: 12:02:47
(UTC+00:00)

NOSS 3-2 (A) - Pass Details

Date: 03 August 2024
Orbit: 703 x 1502 km, 63.4° (Epoch: 12 August)

Event Time Altitude Azimuth Distance (km) Brightness Sun altitude
Rises 13:00:33 0° 326° (NW) 4,065 7.9 -31.4°
Reaches altitude 10° 13:03:07 10° 325° (NW) 3,202 7.1 -31.6°
Maximum altitude 13:11:03 76° 242° (WSW) 1,422 4.1 -32.4°
Enters shadow 13:11:48 72° 200° (SSW) 1,459 4.1 -32.5°
